contact:dominique.lefevre@mio.osupytheas.fr, maurice.libes@osupytheas.fr, didier.mallarino@osupytheas.fr
Project:EMSO http://www.emso-fr.org/EMSO-France
Depth: 2436.0 m
Title:EMSO Ligure Ouest : Data MII capteur MICROCAT
DateTime_Computer,Latitude,Longitude,Temperature,Conductivity,Pressure,DateTime_Instrument
DateTime_Computer,Latitude,Longitude,degC,S m-1,dbar,DateTime_Instrument
2021-04-03T00:01:46Z,42.805,6.029,13.3046,4.60028,2470.25,2021-4-03T02:02:53Z
2021-04-03T00:04:49Z,42.805,6.029,13.3033,4.60024,2470.273,2021-4-03T02:05:56Z
2021-04-03T00:07:52Z,42.805,6.029,13.3033,4.60026,2470.297,2021-4-03T02:08:59Z
2021-04-03T00:10:55Z,42.805,6.029,13.3009,4.60039,2470.273,2021-4-03T02:12:03Z
2021-04-03T00:13:58Z,42.805,6.029,13.3011,4.60089,2470.297,2021-4-03T02:15:06Z
2021-04-03T00:17:01Z,42.805,6.029,13.3031,4.60058,2470.287,2021-4-03T02:18:09Z
2021-04-03T00:20:04Z,42.805,6.029,13.3032,4.60061,2470.264,2021-4-03T02:21:12Z
2021-04-03T00:23:07Z,42.805,6.029,13.3015,4.60077,2470.334,2021-4-03T02:24:15Z
2021-04-03T00:26:11Z,42.805,6.029,13.3038,4.60076,2470.297,2021-4-03T02:27:18Z
2021-04-03T00:29:14Z,42.805,6.029,13.3079,4.60067,2470.287,2021-4-03T02:30:21Z
2021-04-03T00:32:17Z,42.805,6.029,13.3051,4.60054,2470.287,2021-4-03T02:33:24Z
2021-04-03T00:35:20Z,42.805,6.029,13.3032,4.60066,2470.287,2021-4-03T02:36:27Z
2021-04-03T00:38:23Z,42.805,6.029,13.2986,4.60107,2470.31,2021-4-03T02:39:31Z
2021-04-03T00:41:26Z,42.805,6.029,13.2985,4.60061,2470.273,2021-4-03T02:42:34Z
2021-04-03T00:44:29Z,42.805,6.029,13.2982,4.60044,2470.25,2021-4-03T02:45:37Z
2021-04-03T00:47:32Z,42.805,6.029,13.2982,4.60010,2470.25,2021-4-03T02:48:40Z
2021-04-03T00:50:35Z,42.805,6.029,13.2985,4.60009,2470.273,2021-4-03T02:51:43Z
2021-04-03T00:53:39Z,42.805,6.029,13.2980,4.60009,2470.24,2021-4-03T02:54:46Z
2021-04-03T00:56:42Z,42.805,6.029,13.2980,4.60008,2470.334,2021-4-03T02:57:49Z
2021-04-03T00:59:45Z,42.805,6.029,13.2981,4.60012,2470.273,2021-4-03T03:00:52Z
2021-04-03T01:02:48Z,42.805,6.029,13.2978,4.60009,2470.273,2021-4-03T03:03:56Z
2021-04-03T01:05:51Z,42.805,6.029,13.2983,4.60014,2470.25,2021-4-03T03:06:59Z
2021-04-03T01:08:54Z,42.805,6.029,13.2985,4.60003,2470.273,2021-4-03T03:10:02Z
2021-04-03T01:11:57Z,42.805,6.029,13.2981,4.60005,2470.264,2021-4-03T03:13:05Z
2021-04-03T01:15:00Z,42.805,6.029,13.2980,4.59999,2470.25,2021-4-03T03:16:08Z
2021-04-03T01:18:04Z,42.805,6.029,13.2981,4.60009,2470.264,2021-4-03T03:19:11Z
2021-04-03T01:21:07Z,42.805,6.029,13.2983,4.60006,2470.264,2021-4-03T03:22:14Z
2021-04-03T01:24:10Z,42.805,6.029,13.2982,4.60010,2470.31,2021-4-03T03:25:17Z
2021-04-03T01:27:13Z,42.805,6.029,13.2982,4.60002,2470.264,2021-4-03T03:28:20Z
2021-04-03T01:30:16Z,42.805,6.029,13.2982,4.60001,2470.264,2021-4-03T03:31:24Z
2021-04-03T01:33:19Z,42.805,6.029,13.2983,4.59999,2470.25,2021-4-03T03:34:27Z
2021-04-03T01:36:22Z,42.805,6.029,13.2982,4.60001,2470.287,2021-4-03T03:37:30Z
2021-04-03T01:39:25Z,42.805,6.029,13.2985,4.59999,2470.25,2021-4-03T03:40:33Z
2021-04-03T01:42:28Z,42.805,6.029,13.2979,4.59996,2470.264,2021-4-03T03:43:36Z
2021-04-03T01:45:32Z,42.805,6.029,13.2983,4.59995,2470.227,2021-4-03T03:46:39Z
2021-04-03T01:48:35Z,42.805,6.029,13.2975,4.59994,2470.25,2021-4-03T03:49:42Z
2021-04-03T01:51:38Z,42.805,6.029,13.2978,4.60002,2470.25,2021-4-03T03:52:45Z
2021-04-03T01:54:41Z,42.805,6.029,13.2986,4.59993,2470.25,2021-4-03T03:55:49Z
2021-04-03T01:57:44Z,42.805,6.029,13.2983,4.59998,2470.227,2021-4-03T03:58:52Z
2021-04-03T02:00:47Z,42.805,6.029,13.2981,4.59995,2470.24,2021-4-03T04:01:55Z
2021-04-03T02:03:50Z,42.805,6.029,13.2980,4.59996,2470.264,2021-4-03T04:04:58Z
2021-04-03T02:06:53Z,42.805,6.029,13.2979,4.60005,2470.227,2021-4-03T04:08:01Z
2021-04-03T02:09:57Z,42.805,6.029,13.2983,4.60003,2470.227,2021-4-03T04:11:04Z
2021-04-03T02:13:00Z,42.805,6.029,13.2981,4.60003,2470.287,2021-4-03T04:14:07Z
2021-04-03T02:16:03Z,42.805,6.029,13.2980,4.60010,2470.24,2021-4-03T04:17:10Z
2021-04-03T02:19:06Z,42.805,6.029,13.2981,4.59998,2470.24,2021-4-03T04:20:14Z
2021-04-03T02:22:09Z,42.805,6.029,13.2976,4.59997,2470.227,2021-4-03T04:23:17Z
2021-04-03T02:25:12Z,42.805,6.029,13.2979,4.60008,2470.24,2021-4-03T04:26:20Z
2021-04-03T02:28:15Z,42.805,6.029,13.2979,4.60001,2470.227,2021-4-03T04:29:23Z
2021-04-03T02:31:18Z,42.805,6.029,13.2979,4.60009,2470.227,2021-4-03T04:32:26Z
2021-04-03T02:34:22Z,42.805,6.029,13.2985,4.60016,2470.24,2021-4-03T04:35:29Z
2021-04-03T02:37:25Z,42.805,6.029,13.2980,4.60001,2470.217,2021-4-03T04:38:32Z
2021-04-03T02:40:28Z,42.805,6.029,13.2983,4.59996,2470.24,2021-4-03T04:41:35Z
2021-04-03T02:43:31Z,42.805,6.029,13.2982,4.59990,2470.227,2021-4-03T04:44:38Z
2021-04-03T02:46:34Z,42.805,6.029,13.2982,4.60009,2470.203,2021-4-03T04:47:42Z
2021-04-03T02:49:37Z,42.805,6.029,13.2980,4.59994,2470.203,2021-4-03T04:50:45Z
2021-04-03T02:52:40Z,42.805,6.029,13.2980,4.60003,2470.217,2021-4-03T04:53:48Z
2021-04-03T02:55:43Z,42.805,6.029,13.2982,4.60000,2470.24,2021-4-03T04:56:51Z
2021-04-03T02:58:46Z,42.805,6.029,13.2985,4.59996,2470.227,2021-4-03T04:59:54Z
2021-04-03T03:01:50Z,42.805,6.029,13.2983,4.59999,2470.227,2021-4-03T05:02:57Z
2021-04-03T03:04:53Z,42.805,6.029,13.2984,4.59992,2470.24,2021-4-03T05:06:00Z
2021-04-03T03:07:56Z,42.805,6.029,13.2982,4.59996,2470.24,2021-4-03T05:09:03Z
2021-04-03T03:10:59Z,42.805,6.029,13.2981,4.60003,2470.194,2021-4-03T05:12:06Z
2021-04-03T03:14:02Z,42.805,6.029,13.2988,4.59999,2470.217,2021-4-03T05:15:10Z
2021-04-03T03:17:05Z,42.805,6.029,13.2984,4.60006,2470.203,2021-4-03T05:18:13Z
2021-04-03T03:20:08Z,42.805,6.029,13.2989,4.59994,2470.194,2021-4-03T05:21:16Z
2021-04-03T03:23:11Z,42.805,6.029,13.2986,4.59997,2470.217,2021-4-03T05:24:19Z
2021-04-03T03:26:15Z,42.805,6.029,13.2981,4.59994,2470.203,2021-4-03T05:27:22Z
2021-04-03T03:29:18Z,42.805,6.029,13.2985,4.59998,2470.203,2021-4-03T05:30:25Z
2021-04-03T03:32:21Z,42.805,6.029,13.2991,4.59999,2470.194,2021-4-03T05:33:28Z
2021-04-03T03:35:24Z,42.805,6.029,13.2988,4.59991,2470.217,2021-4-03T05:36:31Z
2021-04-03T03:38:27Z,42.805,6.029,13.2988,4.59991,2470.203,2021-4-03T05:39:35Z
2021-04-03T03:41:30Z,42.805,6.029,13.2985,4.59994,2470.18,2021-4-03T05:42:38Z
2021-04-03T03:44:33Z,42.805,6.029,13.2988,4.59995,2470.194,2021-4-03T05:45:41Z
2021-04-03T03:47:36Z,42.805,6.029,13.2989,4.59994,2470.194,2021-4-03T05:48:44Z
2021-04-03T03:50:39Z,42.805,6.029,13.2994,4.59994,2470.18,2021-4-03T05:51:47Z
2021-04-03T03:53:43Z,42.805,6.029,13.2989,4.59997,2470.203,2021-4-03T05:54:50Z
2021-04-03T03:56:46Z,42.805,6.029,13.2989,4.59993,2470.203,2021-4-03T05:57:53Z
2021-04-03T03:59:49Z,42.805,6.029,13.2994,4.59993,2470.18,2021-4-03T06:00:56Z
2021-04-03T04:02:52Z,42.805,6.029,13.2989,4.59990,2470.217,2021-4-03T06:04:00Z
2021-04-03T04:05:55Z,42.805,6.029,13.2987,4.59991,2470.194,2021-4-03T06:07:03Z
2021-04-03T04:08:58Z,42.805,6.029,13.2983,4.59994,2470.203,2021-4-03T06:10:06Z
2021-04-03T04:12:01Z,42.805,6.029,13.2982,4.60001,2470.18,2021-4-03T06:13:09Z
2021-04-03T04:15:04Z,42.805,6.029,13.2982,4.59990,2470.133,2021-4-03T06:16:12Z
2021-04-03T04:18:08Z,42.805,6.029,13.2984,4.59989,2470.18,2021-4-03T06:19:15Z
2021-04-03T04:21:11Z,42.805,6.029,13.2983,4.59993,2470.156,2021-4-03T06:22:18Z
2021-04-03T04:24:14Z,42.805,6.029,13.2983,4.59989,2470.194,2021-4-03T06:25:21Z
2021-04-03T04:27:17Z,42.805,6.029,13.2983,4.59989,2470.171,2021-4-03T06:28:24Z
2021-04-03T04:30:20Z,42.805,6.029,13.2985,4.59991,2470.18,2021-4-03T06:31:28Z
2021-04-03T04:33:23Z,42.805,6.029,13.2983,4.59992,2470.18,2021-4-03T06:34:31Z
2021-04-03T04:36:26Z,42.805,6.029,13.2981,4.59990,2470.203,2021-4-03T06:37:34Z
2021-04-03T04:39:29Z,42.805,6.029,13.2982,4.60008,2470.171,2021-4-03T06:40:37Z
2021-04-03T04:42:32Z,42.805,6.029,13.2981,4.59991,2470.18,2021-4-03T06:43:40Z
2021-04-03T04:45:36Z,42.805,6.029,13.2981,4.59992,2470.18,2021-4-03T06:46:43Z
2021-04-03T04:48:39Z,42.805,6.029,13.2981,4.59988,2470.171,2021-4-03T06:49:46Z
2021-04-03T04:51:42Z,42.805,6.029,13.2982,4.59990,2470.194,2021-4-03T06:52:49Z
2021-04-03T04:54:45Z,42.805,6.029,13.2982,4.59989,2470.18,2021-4-03T06:55:53Z
2021-04-03T04:57:48Z,42.805,6.029,13.2982,4.59988,2470.156,2021-4-03T06:58:56Z
2021-04-03T05:00:51Z,42.805,6.029,13.2982,4.60001,2470.194,2021-4-03T07:01:59Z
2021-04-03T05:03:54Z,42.805,6.029,13.2982,4.59989,2470.156,2021-4-03T07:05:02Z
2021-04-03T05:06:57Z,42.805,6.029,13.2983,4.59989,2470.171,2021-4-03T07:08:05Z
2021-04-03T05:10:01Z,42.805,6.029,13.2985,4.59991,2470.156,2021-4-03T07:11:08Z
2021-04-03T05:13:04Z,42.805,6.029,13.2982,4.59988,2470.18,2021-4-03T07:14:11Z
2021-04-03T05:16:07Z,42.805,6.029,13.2980,4.59988,2470.18,2021-4-03T07:17:14Z
2021-04-03T05:19:10Z,42.805,6.029,13.2979,4.59991,2470.194,2021-4-03T07:20:17Z
2021-04-03T05:22:13Z,42.805,6.029,13.2979,4.59994,2470.133,2021-4-03T07:23:21Z
2021-04-03T05:25:16Z,42.805,6.029,13.2983,4.59990,2470.156,2021-4-03T07:26:24Z
2021-04-03T05:28:19Z,42.805,6.029,13.2983,4.59994,2470.133,2021-4-03T07:29:27Z
2021-04-03T05:31:22Z,42.805,6.029,13.2980,4.59991,2470.18,2021-4-03T07:32:30Z
2021-04-03T05:34:25Z,42.805,6.029,13.2983,4.59992,2470.171,2021-4-03T07:35:33Z
2021-04-03T05:37:29Z,42.805,6.029,13.2983,4.59996,2470.171,2021-4-03T07:38:36Z
2021-04-03T05:40:32Z,42.805,6.029,13.2978,4.59991,2470.133,2021-4-03T07:41:39Z
2021-04-03T05:43:35Z,42.805,6.029,13.2984,4.59990,2470.156,2021-4-03T07:44:42Z
2021-04-03T05:46:38Z,42.805,6.029,13.2980,4.59994,2470.133,2021-4-03T07:47:46Z
2021-04-03T05:49:41Z,42.805,6.029,13.2979,4.59990,2470.171,2021-4-03T07:50:49Z
2021-04-03T05:52:44Z,42.805,6.029,13.2981,4.59993,2470.156,2021-4-03T07:53:52Z
2021-04-03T05:55:47Z,42.805,6.029,13.2983,4.59988,2470.156,2021-4-03T07:56:55Z
2021-04-03T05:58:50Z,42.805,6.029,13.2979,4.59987,2470.133,2021-4-03T07:59:58Z
2021-04-03T06:01:53Z,42.805,6.029,13.2975,4.60002,2470.156,2021-4-03T08:03:01Z
2021-04-03T06:04:57Z,42.805,6.029,13.2984,4.59996,2470.171,2021-4-03T08:06:04Z
2021-04-03T06:08:00Z,42.805,6.029,13.2982,4.59993,2470.18,2021-4-03T08:09:07Z
2021-04-03T06:11:03Z,42.805,6.029,13.2982,4.60001,2470.171,2021-4-03T08:12:10Z
2021-04-03T06:14:06Z,42.805,6.029,13.2983,4.59999,2470.18,2021-4-03T08:15:14Z
2021-04-03T06:17:09Z,42.805,6.029,13.2979,4.59992,2470.156,2021-4-03T08:18:17Z
2021-04-03T06:20:12Z,42.805,6.029,13.2980,4.59994,2470.133,2021-4-03T08:21:20Z
2021-04-03T06:23:15Z,42.805,6.029,13.2978,4.59996,2470.133,2021-4-03T08:24:23Z
2021-04-03T06:26:18Z,42.805,6.029,13.2983,4.59991,2470.147,2021-4-03T08:27:26Z
2021-04-03T06:29:22Z,42.805,6.029,13.2984,4.59993,2470.156,2021-4-03T08:30:29Z
2021-04-03T06:32:25Z,42.805,6.029,13.2980,4.59994,2470.133,2021-4-03T08:33:32Z
2021-04-03T06:35:28Z,42.805,6.029,13.2978,4.59990,2470.147,2021-4-03T08:36:35Z
2021-04-03T06:38:31Z,42.805,6.029,13.2984,4.59999,2470.124,2021-4-03T08:39:39Z
2021-04-03T06:41:34Z,42.805,6.029,13.2982,4.59998,2470.133,2021-4-03T08:42:42Z
2021-04-03T06:44:37Z,42.805,6.029,13.2984,4.59995,2470.194,2021-4-03T08:45:45Z
2021-04-03T06:47:40Z,42.805,6.029,13.2983,4.59990,2470.133,2021-4-03T08:48:48Z
2021-04-03T06:50:43Z,42.805,6.029,13.2983,4.59992,2470.147,2021-4-03T08:51:51Z
2021-04-03T06:53:47Z,42.805,6.029,13.2982,4.59994,2470.147,2021-4-03T08:54:54Z
2021-04-03T06:56:50Z,42.805,6.029,13.2984,4.59999,2470.133,2021-4-03T08:57:57Z
2021-04-03T06:59:53Z,42.805,6.029,13.2983,4.59991,2470.133,2021-4-03T09:01:00Z
2021-04-03T07:02:56Z,42.805,6.029,13.2983,4.60001,2470.156,2021-4-03T09:04:03Z
2021-04-03T07:05:59Z,42.805,6.029,13.2984,4.59990,2470.171,2021-4-03T09:07:07Z
2021-04-03T07:09:02Z,42.805,6.029,13.2984,4.59992,2470.11,2021-4-03T09:10:10Z
2021-04-03T07:12:05Z,42.805,6.029,13.2983,4.59991,2470.147,2021-4-03T09:13:13Z
2021-04-03T07:15:08Z,42.805,6.029,13.2988,4.60072,2470.18,2021-4-03T09:16:16Z
2021-04-03T07:18:11Z,42.805,6.029,13.3014,4.60047,2470.133,2021-4-03T09:19:19Z
2021-04-03T07:21:15Z,42.805,6.029,13.3004,4.60046,2470.156,2021-4-03T09:22:22Z
2021-04-03T07:24:18Z,42.805,6.029,13.3014,4.60024,2470.156,2021-4-03T09:25:25Z
2021-04-03T07:27:21Z,42.805,6.029,13.3012,4.60060,2470.171,2021-4-03T09:28:28Z
2021-04-03T07:30:24Z,42.805,6.029,13.3015,4.60041,2470.147,2021-4-03T09:31:32Z
2021-04-03T07:33:27Z,42.805,6.029,13.3021,4.60049,2470.156,2021-4-03T09:34:35Z
2021-04-03T07:36:30Z,42.805,6.029,13.2999,4.60081,2470.171,2021-4-03T09:37:38Z
2021-04-03T07:39:33Z,42.805,6.029,13.3003,4.60063,2470.18,2021-4-03T09:40:41Z
2021-04-03T07:42:36Z,42.805,6.029,13.3009,4.60092,2470.156,2021-4-03T09:43:44Z
2021-04-03T07:45:39Z,42.805,6.029,13.3007,4.60067,2470.156,2021-4-03T09:46:47Z
2021-04-03T07:48:43Z,42.805,6.029,13.3012,4.60046,2470.18,2021-4-03T09:49:50Z
2021-04-03T07:51:46Z,42.805,6.029,13.3011,4.60076,2470.171,2021-4-03T09:52:53Z
2021-04-03T07:54:49Z,42.805,6.029,13.3024,4.60107,2470.156,2021-4-03T09:55:56Z
2021-04-03T07:57:52Z,42.805,6.029,13.3006,4.60102,2470.18,2021-4-03T09:59:00Z
2021-04-03T08:00:55Z,42.805,6.029,13.3025,4.60082,2470.18,2021-4-03T10:02:03Z
2021-04-03T08:03:58Z,42.805,6.029,13.3016,4.60060,2470.18,2021-4-03T10:05:06Z
2021-04-03T08:07:01Z,42.805,6.029,13.3007,4.60082,2470.217,2021-4-03T10:08:09Z
2021-04-03T08:10:04Z,42.805,6.029,13.3006,4.60078,2470.194,2021-4-03T10:11:12Z
2021-04-03T08:13:08Z,42.805,6.029,13.3002,4.60079,2470.156,2021-4-03T10:14:15Z
2021-04-03T08:16:11Z,42.805,6.029,13.3008,4.60059,2470.194,2021-4-03T10:17:18Z
2021-04-03T08:19:14Z,42.805,6.029,13.3003,4.60057,2470.171,2021-4-03T10:20:21Z
2021-04-03T08:22:17Z,42.805,6.029,13.3008,4.60077,2470.18,2021-4-03T10:23:25Z
2021-04-03T08:25:20Z,42.805,6.029,13.2996,4.60047,2470.24,2021-4-03T10:26:28Z
2021-04-03T08:28:23Z,42.805,6.029,13.3000,4.60055,2470.203,2021-4-03T10:29:31Z
2021-04-03T08:31:26Z,42.805,6.029,13.3007,4.60067,2470.18,2021-4-03T10:32:34Z
2021-04-03T08:34:29Z,42.805,6.029,13.3006,4.60067,2470.194,2021-4-03T10:35:37Z
2021-04-03T08:37:33Z,42.805,6.029,13.3010,4.60059,2470.203,2021-4-03T10:38:40Z
2021-04-03T08:40:36Z,42.805,6.029,13.3009,4.60067,2470.18,2021-4-03T10:41:43Z
2021-04-03T08:43:39Z,42.805,6.029,13.2999,4.60102,2470.217,2021-4-03T10:44:46Z
2021-04-03T08:46:42Z,42.805,6.029,13.3014,4.60060,2470.217,2021-4-03T10:47:50Z
2021-04-03T08:49:45Z,42.805,6.029,13.3005,4.60052,2470.227,2021-4-03T10:50:53Z
2021-04-03T08:52:48Z,42.805,6.029,13.2996,4.60086,2470.203,2021-4-03T10:53:56Z
2021-04-03T08:55:51Z,42.805,6.029,13.3024,4.60064,2470.194,2021-4-03T10:56:59Z
2021-04-03T08:58:54Z,42.805,6.029,13.3001,4.60043,2470.203,2021-4-03T11:00:02Z
2021-04-03T09:01:57Z,42.805,6.029,13.3004,4.60059,2470.227,2021-4-03T11:03:05Z
2021-04-03T09:05:01Z,42.805,6.029,13.3000,4.60027,2470.217,2021-4-03T11:06:08Z
2021-04-03T09:08:04Z,42.805,6.029,13.3006,4.60020,2470.217,2021-4-03T11:09:11Z
2021-04-03T09:11:07Z,42.805,6.029,13.2998,4.60053,2470.203,2021-4-03T11:12:14Z
2021-04-03T09:14:10Z,42.805,6.029,13.3004,4.60037,2470.18,2021-4-03T11:15:18Z
2021-04-03T09:17:13Z,42.805,6.029,13.2996,4.60096,2470.217,2021-4-03T11:18:21Z
2021-04-03T09:20:16Z,42.805,6.029,13.3005,4.60057,2470.194,2021-4-03T11:21:24Z
2021-04-03T09:23:19Z,42.805,6.029,13.3003,4.60077,2470.194,2021-4-03T11:24:27Z
2021-04-03T09:26:22Z,42.805,6.029,13.2998,4.60078,2470.217,2021-4-03T11:27:30Z
2021-04-03T09:29:26Z,42.805,6.029,13.2998,4.60033,2470.227,2021-4-03T11:30:33Z
2021-04-03T09:32:29Z,42.805,6.029,13.3001,4.60074,2470.24,2021-4-03T11:33:36Z
2021-04-03T09:35:32Z,42.805,6.029,13.3001,4.60067,2470.24,2021-4-03T11:36:39Z
2021-04-03T09:38:35Z,42.805,6.029,13.3011,4.60104,2470.217,2021-4-03T11:39:43Z
2021-04-03T09:41:38Z,42.805,6.029,13.3003,4.60093,2470.227,2021-4-03T11:42:46Z
2021-04-03T09:44:41Z,42.805,6.029,13.2997,4.60064,2470.194,2021-4-03T11:45:49Z
2021-04-03T09:47:44Z,42.805,6.029,13.3006,4.60072,2470.24,2021-4-03T11:48:52Z
2021-04-03T09:50:47Z,42.805,6.029,13.3018,4.60079,2470.227,2021-4-03T11:51:55Z
2021-04-03T09:53:51Z,42.805,6.029,13.3013,4.60062,2470.227,2021-4-03T11:54:58Z
2021-04-03T09:56:54Z,42.805,6.029,13.3022,4.60059,2470.227,2021-4-03T11:58:01Z
2021-04-03T09:59:57Z,42.805,6.029,13.3025,4.60065,2470.194,2021-4-03T12:01:04Z
2021-04-03T10:03:00Z,42.805,6.029,13.3040,4.60062,2470.25,2021-4-03T12:04:08Z
2021-04-03T10:06:03Z,42.805,6.029,13.3054,4.60038,2470.227,2021-4-03T12:07:11Z
2021-04-03T10:09:06Z,42.805,6.029,13.3037,4.60057,2470.227,2021-4-03T12:10:14Z
2021-04-03T10:12:09Z,42.805,6.029,13.3018,4.60057,2470.227,2021-4-03T12:13:17Z
2021-04-03T10:15:12Z,42.805,6.029,13.3024,4.60070,2470.24,2021-4-03T12:16:20Z
2021-04-03T10:18:16Z,42.805,6.029,13.2998,4.60095,2470.24,2021-4-03T12:19:23Z
2021-04-03T10:21:19Z,42.805,6.029,13.3012,4.60107,2470.25,2021-4-03T12:22:26Z
2021-04-03T10:24:22Z,42.805,6.029,13.3019,4.60064,2470.24,2021-4-03T12:25:29Z
2021-04-03T10:27:25Z,42.805,6.029,13.3038,4.60068,2470.264,2021-4-03T12:28:33Z
2021-04-03T10:30:28Z,42.805,6.029,13.3023,4.60069,2470.264,2021-4-03T12:31:36Z
2021-04-03T10:33:31Z,42.805,6.029,13.3042,4.60039,2470.227,2021-4-03T12:34:39Z
2021-04-03T10:36:34Z,42.805,6.029,13.3045,4.60050,2470.227,2021-4-03T12:37:42Z
2021-04-03T10:39:37Z,42.805,6.029,13.3055,4.60038,2470.24,2021-4-03T12:40:45Z
2021-04-03T10:42:41Z,42.805,6.029,13.3032,4.60047,2470.217,2021-4-03T12:43:48Z
2021-04-03T10:45:44Z,42.805,6.029,13.3036,4.60079,2470.227,2021-4-03T12:46:51Z
2021-04-03T10:48:47Z,42.805,6.029,13.3043,4.60060,2470.25,2021-4-03T12:49:54Z
2021-04-03T10:51:50Z,42.805,6.029,13.3030,4.60024,2470.24,2021-4-03T12:52:58Z
2021-04-03T10:54:53Z,42.805,6.029,13.3026,4.60090,2470.24,2021-4-03T12:56:01Z
2021-04-03T10:57:56Z,42.805,6.029,13.3032,4.60063,2470.24,2021-4-03T12:59:04Z
2021-04-03T11:00:59Z,42.805,6.029,13.3044,4.60059,2470.24,2021-4-03T13:02:07Z
2021-04-03T11:04:02Z,42.805,6.029,13.3049,4.60043,2470.25,2021-4-03T13:05:10Z
2021-04-03T11:07:06Z,42.805,6.029,13.3052,4.60101,2470.273,2021-4-03T13:08:13Z
2021-04-03T11:10:09Z,42.805,6.029,13.3040,4.60057,2470.25,2021-4-03T13:11:16Z
2021-04-03T11:13:12Z,42.805,6.029,13.3041,4.60089,2470.24,2021-4-03T13:14:19Z
2021-04-03T11:16:15Z,42.805,6.029,13.3039,4.60049,2470.203,2021-4-03T13:17:23Z
2021-04-03T11:19:18Z,42.805,6.029,13.3052,4.60052,2470.227,2021-4-03T13:20:26Z
2021-04-03T11:22:21Z,42.805,6.029,13.3057,4.60086,2470.203,2021-4-03T13:23:29Z
2021-04-03T11:25:24Z,42.805,6.029,13.3069,4.60054,2470.24,2021-4-03T13:26:32Z
2021-04-03T11:28:27Z,42.805,6.029,13.3076,4.60037,2470.227,2021-4-03T13:29:35Z
2021-04-03T11:31:31Z,42.805,6.029,13.3070,4.60099,2470.25,2021-4-03T13:32:38Z
2021-04-03T11:34:34Z,42.805,6.029,13.3067,4.60051,2470.203,2021-4-03T13:35:41Z
2021-04-03T11:37:37Z,42.805,6.029,13.3054,4.60044,2470.227,2021-4-03T13:38:44Z
2021-04-03T11:40:40Z,42.805,6.029,13.3054,4.60020,2470.25,2021-4-03T13:41:48Z
2021-04-03T11:43:43Z,42.805,6.029,13.3056,4.60031,2470.264,2021-4-03T13:44:51Z
2021-04-03T11:46:46Z,42.805,6.029,13.3021,4.60074,2470.24,2021-4-03T13:47:54Z
2021-04-03T11:49:49Z,42.805,6.029,13.3019,4.60066,2470.227,2021-4-03T13:50:57Z
2021-04-03T11:52:52Z,42.805,6.029,13.3024,4.60045,2470.24,2021-4-03T13:54:00Z
2021-04-03T11:55:56Z,42.805,6.029,13.3031,4.60036,2470.194,2021-4-03T13:57:03Z
2021-04-03T11:58:59Z,42.805,6.029,13.3032,4.60053,2470.217,2021-4-03T14:00:06Z
2021-04-03T12:02:02Z,42.805,6.029,13.3034,4.60061,2470.227,2021-4-03T14:03:09Z
2021-04-03T12:05:05Z,42.805,6.029,13.3063,4.60024,2470.194,2021-4-03T14:06:13Z
2021-04-03T12:08:08Z,42.805,6.029,13.3064,4.60069,2470.227,2021-4-03T14:09:16Z
2021-04-03T12:11:11Z,42.805,6.029,13.3073,4.60058,2470.227,2021-4-03T14:12:19Z
2021-04-03T12:14:14Z,42.805,6.029,13.3069,4.60043,2470.24,2021-4-03T14:15:22Z
2021-04-03T12:17:17Z,42.805,6.029,13.3025,4.60060,2470.203,2021-4-03T14:18:25Z
2021-04-03T12:20:20Z,42.805,6.029,13.3051,4.60040,2470.18,2021-4-03T14:21:28Z
2021-04-03T12:23:24Z,42.805,6.029,13.3042,4.60067,2470.203,2021-4-03T14:24:31Z
2021-04-03T12:26:27Z,42.805,6.029,13.3014,4.60049,2470.24,2021-4-03T14:27:34Z
2021-04-03T12:29:30Z,42.805,6.029,13.3023,4.60032,2470.203,2021-4-03T14:30:38Z
2021-04-03T12:32:33Z,42.805,6.029,13.3034,4.60043,2470.203,2021-4-03T14:33:41Z
2021-04-03T12:35:36Z,42.805,6.029,13.3030,4.60016,2470.24,2021-4-03T14:36:44Z
2021-04-03T12:38:39Z,42.805,6.029,13.3023,4.60019,2470.203,2021-4-03T14:39:47Z
2021-04-03T12:41:42Z,42.805,6.029,13.3033,4.60033,2470.203,2021-4-03T14:42:50Z
2021-04-03T12:44:45Z,42.805,6.029,13.3042,4.60044,2470.194,2021-4-03T14:45:53Z
2021-04-03T12:47:49Z,42.805,6.029,13.3038,4.60046,2470.217,2021-4-03T14:48:56Z
2021-04-03T12:50:52Z,42.805,6.029,13.3050,4.60037,2470.156,2021-4-03T14:51:59Z
2021-04-03T12:53:55Z,42.805,6.029,13.3029,4.60047,2470.18,2021-4-03T14:55:02Z
2021-04-03T12:56:58Z,42.805,6.029,13.3018,4.60026,2470.217,2021-4-03T14:58:06Z
2021-04-03T13:00:01Z,42.805,6.029,13.3017,4.60035,2470.194,2021-4-03T15:01:09Z
2021-04-03T13:03:04Z,42.805,6.029,13.3070,4.60031,2470.203,2021-4-03T15:04:12Z
2021-04-03T13:06:07Z,42.805,6.029,13.3039,4.60031,2470.203,2021-4-03T15:07:15Z
2021-04-03T13:09:10Z,42.805,6.029,13.3043,4.60014,2470.203,2021-4-03T15:10:18Z
2021-04-03T13:12:14Z,42.805,6.029,13.3024,4.60030,2470.194,2021-4-03T15:13:21Z
2021-04-03T13:15:17Z,42.805,6.029,13.3044,4.60031,2470.194,2021-4-03T15:16:24Z
2021-04-03T13:18:20Z,42.805,6.029,13.3045,4.60021,2470.18,2021-4-03T15:19:27Z
2021-04-03T13:21:23Z,42.805,6.029,13.3041,4.60031,2470.18,2021-4-03T15:22:31Z
2021-04-03T13:24:26Z,42.805,6.029,13.3026,4.60043,2470.194,2021-4-03T15:25:34Z
2021-04-03T13:27:29Z,42.805,6.029,13.3034,4.60034,2470.24,2021-4-03T15:28:37Z
2021-04-03T13:30:32Z,42.805,6.029,13.3034,4.60029,2470.203,2021-4-03T15:31:40Z
2021-04-03T13:33:35Z,42.805,6.029,13.3045,4.60061,2470.18,2021-4-03T15:34:43Z
2021-04-03T13:36:39Z,42.805,6.029,13.3054,4.60051,2470.194,2021-4-03T15:37:46Z
2021-04-03T13:39:42Z,42.805,6.029,13.3040,4.60044,2470.171,2021-4-03T15:40:49Z
2021-04-03T13:42:45Z,42.805,6.029,13.3053,4.60026,2470.18,2021-4-03T15:43:52Z
2021-04-03T13:45:48Z,42.805,6.029,13.3046,4.60017,2470.194,2021-4-03T15:46:56Z
2021-04-03T13:48:51Z,42.805,6.029,13.3069,4.60039,2470.171,2021-4-03T15:49:59Z
2021-04-03T13:51:54Z,42.805,6.029,13.3057,4.60031,2470.203,2021-4-03T15:53:02Z
2021-04-03T13:54:57Z,42.805,6.029,13.3052,4.60020,2470.171,2021-4-03T15:56:05Z
2021-04-03T13:58:00Z,42.805,6.029,13.3040,4.60014,2470.18,2021-4-03T15:59:08Z
2021-04-03T14:01:04Z,42.805,6.029,13.3053,4.60033,2470.194,2021-4-03T16:02:11Z
2021-04-03T14:04:07Z,42.805,6.029,13.3051,4.60040,2470.203,2021-4-03T16:05:14Z
2021-04-03T14:07:10Z,42.805,6.029,13.3054,4.60032,2470.194,2021-4-03T16:08:17Z
2021-04-03T14:10:13Z,42.805,6.029,13.3059,4.60019,2470.18,2021-4-03T16:11:21Z
2021-04-03T14:13:16Z,42.805,6.029,13.3050,4.60062,2470.171,2021-4-03T16:14:24Z
2021-04-03T14:16:19Z,42.805,6.029,13.3044,4.60035,2470.184,2021-4-03T16:17:27Z
2021-04-03T14:19:22Z,42.805,6.029,13.3014,4.60039,2470.194,2021-4-03T16:20:30Z
2021-04-03T14:22:25Z,42.805,6.029,13.3052,4.60020,2470.133,2021-4-03T16:23:33Z
2021-04-03T14:25:29Z,42.805,6.029,13.3031,4.60027,2470.171,2021-4-03T16:26:36Z
2021-04-03T14:28:32Z,42.805,6.029,13.3027,4.60040,2470.194,2021-4-03T16:29:39Z
2021-04-03T14:31:35Z,42.805,6.029,13.3024,4.60045,2470.194,2021-4-03T16:32:42Z
2021-04-03T14:34:38Z,42.805,6.029,13.3047,4.60038,2470.156,2021-4-03T16:35:46Z
2021-04-03T14:37:41Z,42.805,6.029,13.3041,4.60020,2470.147,2021-4-03T16:38:49Z
2021-04-03T14:40:44Z,42.805,6.029,13.3021,4.60016,2470.194,2021-4-03T16:41:52Z
2021-04-03T14:43:47Z,42.805,6.029,13.3021,4.60024,2470.217,2021-4-03T16:44:55Z
2021-04-03T14:46:50Z,42.805,6.029,13.3024,4.60027,2470.203,2021-4-03T16:47:58Z
2021-04-03T14:49:54Z,42.805,6.029,13.3025,4.60010,2470.18,2021-4-03T16:51:01Z
2021-04-03T14:52:57Z,42.805,6.029,13.3034,4.60008,2470.194,2021-4-03T16:54:04Z
2021-04-03T14:56:00Z,42.805,6.029,13.3029,4.60014,2470.194,2021-4-03T16:57:07Z
2021-04-03T14:59:03Z,42.805,6.029,13.3025,4.60024,2470.194,2021-4-03T17:00:11Z
2021-04-03T15:02:06Z,42.805,6.029,13.3028,4.60016,2470.194,2021-4-03T17:03:14Z
2021-04-03T15:05:09Z,42.805,6.029,13.3023,4.60024,2470.156,2021-4-03T17:06:17Z
2021-04-03T15:08:12Z,42.805,6.029,13.3021,4.60031,2470.18,2021-4-03T17:09:20Z
2021-04-03T15:11:15Z,42.805,6.029,13.3025,4.60012,2470.203,2021-4-03T17:12:23Z
2021-04-03T15:14:18Z,42.805,6.029,13.3019,4.60028,2470.217,2021-4-03T17:15:26Z